Year,Month,Day,Hour,Minute,Value (Times are PST for temperature in C)
2016,04,07,00,00,7.90
2016,04,07,00,01,7.90
2016,04,07,00,02,7.90
2016,04,07,00,03,7.90
2016,04,07,00,04,7.80
2016,04,07,00,05,7.80
2016,04,07,00,06,7.80
2016,04,07,00,07,7.80
2016,04,07,00,08,7.80
2016,04,07,00,09,7.80
2016,04,07,00,10,7.70
2016,04,07,00,11,7.70
2016,04,07,00,12,7.70
2016,04,07,00,13,7.70
2016,04,07,00,14,7.70
2016,04,07,00,15,7.70
2016,04,07,00,16,7.70
2016,04,07,00,17,7.70
2016,04,07,00,18,7.70
2016,04,07,00,19,7.70
2016,04,07,00,20,7.70
2016,04,07,00,21,7.80
2016,04,07,00,22,7.90
2016,04,07,00,23,8.00
2016,04,07,00,24,8.10
2016,04,07,00,25,8.10
2016,04,07,00,26,8.20
2016,04,07,00,27,8.20
2016,04,07,00,28,8.20
2016,04,07,00,29,8.20
2016,04,07,00,30,8.30
2016,04,07,00,31,8.30
2016,04,07,00,32,8.30
2016,04,07,00,33,8.30
2016,04,07,00,34,8.30
2016,04,07,00,35,8.30
2016,04,07,00,36,8.30
2016,04,07,00,37,8.30
2016,04,07,00,38,8.30
2016,04,07,00,39,8.30
2016,04,07,00,40,8.30
2016,04,07,00,41,8.20
2016,04,07,00,42,8.20
2016,04,07,00,43,8.20
2016,04,07,00,44,8.20
2016,04,07,00,45,8.20
2016,04,07,00,46,8.20
2016,04,07,00,47,8.20
2016,04,07,00,48,8.10
2016,04,07,00,49,8.10
2016,04,07,00,50,8.10
2016,04,07,00,51,8.10
2016,04,07,00,52,8.00
2016,04,07,00,53,8.00
2016,04,07,00,54,8.00
2016,04,07,00,55,8.00
2016,04,07,00,56,8.00
2016,04,07,00,57,8.00
2016,04,07,00,58,8.10
2016,04,07,00,59,8.10
2016,04,07,01,00,8.10
2016,04,07,01,01,8.10
2016,04,07,01,02,8.10
2016,04,07,01,03,8.10
2016,04,07,01,04,8.10
2016,04,07,01,05,8.10
2016,04,07,01,06,8.10
2016,04,07,01,07,8.10
2016,04,07,01,08,8.10
2016,04,07,01,09,8.10
2016,04,07,01,10,8.10
2016,04,07,01,11,8.20
2016,04,07,01,12,8.20
2016,04,07,01,13,8.20
2016,04,07,01,14,8.20
2016,04,07,01,15,8.20
2016,04,07,01,16,8.20
2016,04,07,01,17,8.20
2016,04,07,01,18,8.20
2016,04,07,01,19,8.20
2016,04,07,01,20,8.20
2016,04,07,01,21,8.20
2016,04,07,01,22,8.20
2016,04,07,01,23,8.20
2016,04,07,01,24,8.10
2016,04,07,01,25,8.10
2016,04,07,01,26,8.10
2016,04,07,01,27,8.10
2016,04,07,01,28,8.00
2016,04,07,01,29,8.00
2016,04,07,01,30,8.00
2016,04,07,01,31,8.00
2016,04,07,01,32,8.00
2016,04,07,01,33,7.90
2016,04,07,01,34,7.90
2016,04,07,01,35,7.90
2016,04,07,01,36,7.90
2016,04,07,01,37,7.90
2016,04,07,01,38,7.80
2016,04,07,01,39,7.80
2016,04,07,01,40,7.80
2016,04,07,01,41,7.80
2016,04,07,01,42,7.80
2016,04,07,01,43,7.80
2016,04,07,01,44,7.80
2016,04,07,01,45,7.80
2016,04,07,01,46,7.80
2016,04,07,01,47,7.70
2016,04,07,01,48,7.80
2016,04,07,01,49,7.80
2016,04,07,01,50,7.80
2016,04,07,01,51,7.80
2016,04,07,01,52,7.80
2016,04,07,01,53,7.80
2016,04,07,01,54,7.80
2016,04,07,01,55,7.80
2016,04,07,01,56,7.80
2016,04,07,01,57,7.80
2016,04,07,01,58,7.80
2016,04,07,01,59,7.80
2016,04,07,02,00,7.80
2016,04,07,02,01,7.80
2016,04,07,02,02,7.80
2016,04,07,02,03,7.80
2016,04,07,02,04,7.80
2016,04,07,02,05,7.80
2016,04,07,02,06,7.80
2016,04,07,02,07,7.80
2016,04,07,02,08,7.90
2016,04,07,02,09,7.90
2016,04,07,02,10,7.90
2016,04,07,02,11,7.90
2016,04,07,02,12,7.90
2016,04,07,02,13,7.90
2016,04,07,02,14,7.90
2016,04,07,02,15,7.90
2016,04,07,02,16,7.90
2016,04,07,02,17,7.90
2016,04,07,02,18,7.90
2016,04,07,02,19,7.90
2016,04,07,02,20,7.90
2016,04,07,02,21,7.90
2016,04,07,02,22,7.90
2016,04,07,02,23,7.90
2016,04,07,02,24,7.90
2016,04,07,02,25,8.00
2016,04,07,02,26,8.00
2016,04,07,02,27,8.00
2016,04,07,02,28,8.10
2016,04,07,02,29,8.10
2016,04,07,02,30,8.20
2016,04,07,02,31,8.20
2016,04,07,02,32,8.30
2016,04,07,02,33,8.30
2016,04,07,02,34,8.30
2016,04,07,02,35,8.30
2016,04,07,02,36,8.30
2016,04,07,02,37,8.40
2016,04,07,02,38,8.40
2016,04,07,02,39,8.40
2016,04,07,02,40,8.40
2016,04,07,02,41,8.40
2016,04,07,02,42,8.40
2016,04,07,02,43,8.40
2016,04,07,02,44,8.30
2016,04,07,02,45,8.30
2016,04,07,02,46,8.30
2016,04,07,02,47,8.30
2016,04,07,02,48,8.20
2016,04,07,02,49,8.20
2016,04,07,02,50,8.20
2016,04,07,02,51,8.20
2016,04,07,02,52,8.10
2016,04,07,02,53,8.00
2016,04,07,02,54,7.90
2016,04,07,02,55,7.90
2016,04,07,02,56,7.80
2016,04,07,02,57,7.80
2016,04,07,02,58,7.70
2016,04,07,02,59,7.60
2016,04,07,03,00,7.60
2016,04,07,03,01,7.50
2016,04,07,03,02,7.50
2016,04,07,03,03,7.40
2016,04,07,03,04,7.40
2016,04,07,03,05,7.40
2016,04,07,03,06,7.40
2016,04,07,03,07,7.40
2016,04,07,03,08,7.30
2016,04,07,03,09,7.30
2016,04,07,03,10,7.30
2016,04,07,03,11,7.30
2016,04,07,03,12,7.20
2016,04,07,03,13,7.20
2016,04,07,03,14,7.20
2016,04,07,03,15,7.20
2016,04,07,03,16,7.20
2016,04,07,03,17,7.20
2016,04,07,03,18,7.20
2016,04,07,03,19,7.20
2016,04,07,03,20,7.20
2016,04,07,03,21,7.20
2016,04,07,03,22,7.20
2016,04,07,03,23,7.20
2016,04,07,03,24,7.20
2016,04,07,03,25,7.10
2016,04,07,03,26,7.10
2016,04,07,03,27,7.00
2016,04,07,03,28,6.90
2016,04,07,03,29,6.90
2016,04,07,03,30,6.80
2016,04,07,03,31,6.80
2016,04,07,03,32,6.70
2016,04,07,03,33,6.70
2016,04,07,03,34,6.70
2016,04,07,03,35,6.60
2016,04,07,03,36,6.60
2016,04,07,03,37,6.60
2016,04,07,03,38,6.60
2016,04,07,03,39,6.60
2016,04,07,03,40,6.60
2016,04,07,03,41,6.60
2016,04,07,03,42,6.60
2016,04,07,03,43,6.60
2016,04,07,03,44,6.60
2016,04,07,03,45,6.60
2016,04,07,03,46,6.70
2016,04,07,03,47,6.70
2016,04,07,03,48,6.80
2016,04,07,03,49,6.80
2016,04,07,03,50,6.80
2016,04,07,03,51,6.90
2016,04,07,03,52,6.90
2016,04,07,03,53,6.90
2016,04,07,03,54,7.00
2016,04,07,03,55,7.00
2016,04,07,03,56,7.10
2016,04,07,03,57,7.10
2016,04,07,03,58,7.10
2016,04,07,03,59,7.10
2016,04,07,04,00,7.10
2016,04,07,04,01,7.10
2016,04,07,04,02,7.10
2016,04,07,04,03,7.10
2016,04,07,04,04,7.10
2016,04,07,04,05,7.10
2016,04,07,04,06,7.10
2016,04,07,04,07,7.00
2016,04,07,04,08,7.00
2016,04,07,04,09,6.90
2016,04,07,04,10,6.90
2016,04,07,04,11,6.90
2016,04,07,04,12,6.90
2016,04,07,04,13,6.90
2016,04,07,04,14,6.80
2016,04,07,04,15,6.80
2016,04,07,04,16,6.80
2016,04,07,04,17,6.80
2016,04,07,04,18,6.80
2016,04,07,04,19,6.70
2016,04,07,04,20,6.70
2016,04,07,04,21,6.70
2016,04,07,04,22,6.70
2016,04,07,04,23,6.80
2016,04,07,04,24,6.80
2016,04,07,04,25,6.80
2016,04,07,04,26,6.80
2016,04,07,04,27,6.80
2016,04,07,04,28,6.80
2016,04,07,04,29,6.90
2016,04,07,04,30,6.80
2016,04,07,04,31,6.80
2016,04,07,04,32,6.90
2016,04,07,04,33,6.90
2016,04,07,04,34,6.90
2016,04,07,04,35,6.90
2016,04,07,04,36,6.90
2016,04,07,04,37,6.90
2016,04,07,04,38,6.90
2016,04,07,04,39,7.00
2016,04,07,04,40,6.90
2016,04,07,04,41,7.00
2016,04,07,04,42,7.00
2016,04,07,04,43,7.10
2016,04,07,04,44,7.10
2016,04,07,04,45,7.20
2016,04,07,04,46,7.20
2016,04,07,04,47,7.20
2016,04,07,04,48,7.20
2016,04,07,04,49,7.20
2016,04,07,04,50,7.20
2016,04,07,04,51,7.10
2016,04,07,04,52,7.10
2016,04,07,04,53,7.10
2016,04,07,04,54,7.10
2016,04,07,04,55,7.10
2016,04,07,04,56,7.10
2016,04,07,04,57,7.10
2016,04,07,04,58,7.10
2016,04,07,04,59,7.10
2016,04,07,05,00,7.10
2016,04,07,05,01,7.10
2016,04,07,05,02,7.10
2016,04,07,05,03,7.10
2016,04,07,05,04,7.10
2016,04,07,05,05,7.10
2016,04,07,05,06,7.10
2016,04,07,05,07,7.20
2016,04,07,05,08,7.20
2016,04,07,05,09,7.20
2016,04,07,05,10,7.20
2016,04,07,05,11,7.20
2016,04,07,05,12,7.20
2016,04,07,05,13,7.20
2016,04,07,05,14,7.10
2016,04,07,05,15,7.10
2016,04,07,05,16,7.10
2016,04,07,05,17,7.10
2016,04,07,05,18,7.10
2016,04,07,05,19,7.10
2016,04,07,05,20,7.10
2016,04,07,05,21,7.00
2016,04,07,05,22,7.00
2016,04,07,05,23,7.00
2016,04,07,05,24,7.00
2016,04,07,05,25,7.00
2016,04,07,05,26,7.00
2016,04,07,05,27,6.90
2016,04,07,05,28,6.90
2016,04,07,05,29,6.90
2016,04,07,05,30,6.90
2016,04,07,05,31,6.90
2016,04,07,05,32,6.90
2016,04,07,05,33,6.90
2016,04,07,05,34,6.90
2016,04,07,05,35,6.80
2016,04,07,05,36,6.80
2016,04,07,05,37,6.80
2016,04,07,05,38,6.80
2016,04,07,05,39,6.80
2016,04,07,05,40,6.90
2016,04,07,05,41,6.80
2016,04,07,05,42,6.80
2016,04,07,05,43,6.80
2016,04,07,05,44,6.80
2016,04,07,05,45,6.80
2016,04,07,05,46,6.80
2016,04,07,05,47,6.80
2016,04,07,05,48,6.80
2016,04,07,05,49,6.80
2016,04,07,05,50,6.80
2016,04,07,05,51,6.80
2016,04,07,05,52,6.80
2016,04,07,05,53,6.80
2016,04,07,05,54,6.80
2016,04,07,05,55,6.80
2016,04,07,05,56,6.80
2016,04,07,05,57,6.80
2016,04,07,05,58,6.80
2016,04,07,05,59,6.80
2016,04,07,06,00,6.80
2016,04,07,06,01,6.80
2016,04,07,06,02,6.80
2016,04,07,06,03,6.80
2016,04,07,06,04,6.80
2016,04,07,06,05,6.80
2016,04,07,06,06,6.80
2016,04,07,06,07,6.80
2016,04,07,06,08,6.80
2016,04,07,06,09,6.80
2016,04,07,06,10,6.80
2016,04,07,06,11,6.80
2016,04,07,06,12,6.80
2016,04,07,06,13,6.80
2016,04,07,06,14,6.80
2016,04,07,06,15,6.80
2016,04,07,06,16,6.80
2016,04,07,06,17,6.80
2016,04,07,06,18,6.80
2016,04,07,06,19,6.80
2016,04,07,06,20,6.80
2016,04,07,06,21,6.80
2016,04,07,06,22,6.80
2016,04,07,06,23,6.80
2016,04,07,06,24,6.90
2016,04,07,06,25,6.90
2016,04,07,06,26,6.90
2016,04,07,06,27,6.90
2016,04,07,06,28,6.90
2016,04,07,06,29,6.90
2016,04,07,06,30,6.90
2016,04,07,06,31,6.90
2016,04,07,06,32,6.90
2016,04,07,06,33,6.90
2016,04,07,06,34,6.90
2016,04,07,06,35,6.90
2016,04,07,06,36,6.90
2016,04,07,06,37,6.90
2016,04,07,06,38,6.90
2016,04,07,06,39,6.90
2016,04,07,06,40,6.90
2016,04,07,06,41,6.90
2016,04,07,06,42,6.90
2016,04,07,06,43,6.90
2016,04,07,06,44,7.00
2016,04,07,06,45,7.00
2016,04,07,06,46,7.00
2016,04,07,06,47,7.00
2016,04,07,06,48,7.00
2016,04,07,06,49,7.00
2016,04,07,06,50,7.00
2016,04,07,06,51,7.00
2016,04,07,06,52,7.00
2016,04,07,06,53,7.00
2016,04,07,06,54,7.00
2016,04,07,06,55,7.00
2016,04,07,06,56,7.00
2016,04,07,06,57,7.00
2016,04,07,06,58,7.00
2016,04,07,06,59,7.00
2016,04,07,07,00,7.00
2016,04,07,07,01,7.00
2016,04,07,07,02,7.10
2016,04,07,07,03,7.10
2016,04,07,07,04,7.10
2016,04,07,07,05,7.10
2016,04,07,07,06,7.10
2016,04,07,07,07,7.10
2016,04,07,07,08,7.10
2016,04,07,07,09,7.10
2016,04,07,07,10,7.10
2016,04,07,07,11,7.10
2016,04,07,07,12,7.20
2016,04,07,07,13,7.20
2016,04,07,07,14,7.20
2016,04,07,07,15,7.20
2016,04,07,07,16,7.20
2016,04,07,07,17,7.20
2016,04,07,07,18,7.20
2016,04,07,07,19,7.20
2016,04,07,07,20,7.20
2016,04,07,07,21,7.20
2016,04,07,07,22,7.30
2016,04,07,07,23,7.30
2016,04,07,07,24,7.30
2016,04,07,07,25,7.30
2016,04,07,07,26,7.40
2016,04,07,07,27,7.40
2016,04,07,07,28,7.40
2016,04,07,07,29,7.40
2016,04,07,07,30,7.40
2016,04,07,07,31,7.40
2016,04,07,07,32,7.50
2016,04,07,07,33,7.50
2016,04,07,07,34,7.50
2016,04,07,07,35,7.50
2016,04,07,07,36,7.60
2016,04,07,07,37,7.60
2016,04,07,07,38,7.60
2016,04,07,07,39,7.60
2016,04,07,07,40,7.70
2016,04,07,07,41,7.70
2016,04,07,07,42,7.70
2016,04,07,07,43,7.80
2016,04,07,07,44,7.80
2016,04,07,07,45,7.80
2016,04,07,07,46,7.90
2016,04,07,07,47,7.90
2016,04,07,07,48,7.90
2016,04,07,07,49,8.00
2016,04,07,07,50,8.00
2016,04,07,07,51,8.00
2016,04,07,07,52,8.10
2016,04,07,07,53,8.10
2016,04,07,07,54,8.10
2016,04,07,07,55,8.20
2016,04,07,07,56,8.20
2016,04,07,07,57,8.20
2016,04,07,07,58,8.20
2016,04,07,07,59,8.30
2016,04,07,08,00,8.30
2016,04,07,08,01,8.30
2016,04,07,08,02,8.30
2016,04,07,08,03,8.40
2016,04,07,08,04,8.40
2016,04,07,08,05,8.40
2016,04,07,08,06,8.40
2016,04,07,08,07,8.50
2016,04,07,08,08,8.50
2016,04,07,08,09,8.50
2016,04,07,08,10,8.60
2016,04,07,08,11,8.60
2016,04,07,08,12,8.60
2016,04,07,08,13,8.60
2016,04,07,08,14,8.70
2016,04,07,08,15,8.70
2016,04,07,08,16,8.70
2016,04,07,08,17,8.70
2016,04,07,08,18,8.70
2016,04,07,08,19,8.80
2016,04,07,08,20,8.80
2016,04,07,08,21,8.80
2016,04,07,08,22,8.80
2016,04,07,08,23,8.80
2016,04,07,08,24,8.80
2016,04,07,08,25,8.90
2016,04,07,08,26,8.90
2016,04,07,08,27,8.90
2016,04,07,08,28,8.90
2016,04,07,08,29,8.90
2016,04,07,08,30,9.00
2016,04,07,08,31,9.00
2016,04,07,08,32,9.00
2016,04,07,08,33,9.10
2016,04,07,08,34,9.10
2016,04,07,08,35,9.10
2016,04,07,08,36,9.20
2016,04,07,08,37,9.20
2016,04,07,08,38,9.20
2016,04,07,08,39,9.20
2016,04,07,08,40,9.20
2016,04,07,08,41,9.30
2016,04,07,08,42,9.30
2016,04,07,08,43,9.30
2016,04,07,08,44,9.40
2016,04,07,08,45,9.40
2016,04,07,08,46,9.40
2016,04,07,08,47,9.40
2016,04,07,08,48,9.40
2016,04,07,08,49,9.50
2016,04,07,08,50,9.50
2016,04,07,08,51,9.60
2016,04,07,08,52,9.60
2016,04,07,08,53,9.60
2016,04,07,08,54,9.60
2016,04,07,08,55,9.70
2016,04,07,08,56,9.70
2016,04,07,08,57,9.70
2016,04,07,08,58,9.70
2016,04,07,08,59,9.80
2016,04,07,09,00,9.80
2016,04,07,09,01,9.80
2016,04,07,09,02,9.80
2016,04,07,09,03,9.80
2016,04,07,09,04,9.80
2016,04,07,09,05,9.80
2016,04,07,09,06,9.80
2016,04,07,09,07,9.90
2016,04,07,09,08,9.90
2016,04,07,09,09,9.90
2016,04,07,09,10,9.90
2016,04,07,09,11,10.00
2016,04,07,09,12,10.00
2016,04,07,09,13,10.10
2016,04,07,09,14,10.10
2016,04,07,09,15,10.10
2016,04,07,09,16,10.10
2016,04,07,09,17,10.10
2016,04,07,09,18,10.20
2016,04,07,09,19,10.30
2016,04,07,09,20,10.30
2016,04,07,09,21,10.30
2016,04,07,09,22,10.40
2016,04,07,09,23,10.50
2016,04,07,09,24,10.50
2016,04,07,09,25,10.60
2016,04,07,09,26,10.60
2016,04,07,09,27,10.70
2016,04,07,09,28,10.70
2016,04,07,09,29,10.70
2016,04,07,09,30,10.70
2016,04,07,09,31,10.70
2016,04,07,09,32,10.80
2016,04,07,09,33,10.80
2016,04,07,09,34,10.80
2016,04,07,09,35,10.80
2016,04,07,09,36,10.80
2016,04,07,09,37,10.90
2016,04,07,09,38,10.90
2016,04,07,09,39,10.90
2016,04,07,09,40,10.90
2016,04,07,09,41,10.90
2016,04,07,09,42,10.90
2016,04,07,09,43,11.00
2016,04,07,09,44,11.00
2016,04,07,09,45,11.10
2016,04,07,09,46,11.10
2016,04,07,09,47,11.10
2016,04,07,09,48,11.10
2016,04,07,09,49,11.00
2016,04,07,09,50,11.00
2016,04,07,09,51,11.00
2016,04,07,09,52,11.00
2016,04,07,09,53,11.00
2016,04,07,09,54,10.90
2016,04,07,09,55,10.90
2016,04,07,09,56,11.00
2016,04,07,09,57,11.10
2016,04,07,09,58,11.10
2016,04,07,09,59,11.20
2016,04,07,10,00,11.20
2016,04,07,10,01,11.20
2016,04,07,10,02,11.20
2016,04,07,10,03,11.20
2016,04,07,10,04,11.20
2016,04,07,10,05,11.30
2016,04,07,10,06,11.30
2016,04,07,10,07,11.30
2016,04,07,10,08,11.40
2016,04,07,10,09,11.40
2016,04,07,10,10,11.30
2016,04,07,10,11,11.30
2016,04,07,10,12,11.30
2016,04,07,10,13,11.30
2016,04,07,10,14,11.30
2016,04,07,10,15,11.20
2016,04,07,10,16,11.20
2016,04,07,10,17,11.20
2016,04,07,10,18,11.20
2016,04,07,10,19,11.20
2016,04,07,10,20,11.20
2016,04,07,10,21,11.20
2016,04,07,10,22,11.20
2016,04,07,10,23,11.20
2016,04,07,10,24,11.20
2016,04,07,10,25,11.20
2016,04,07,10,26,11.20
2016,04,07,10,27,11.30
2016,04,07,10,28,11.30
2016,04,07,10,29,11.30
2016,04,07,10,30,11.30
2016,04,07,10,31,11.30
2016,04,07,10,32,11.20
2016,04,07,10,33,11.20
2016,04,07,10,34,11.20
2016,04,07,10,35,11.20
2016,04,07,10,36,11.20
2016,04,07,10,37,11.20
2016,04,07,10,38,11.20
2016,04,07,10,39,11.20
2016,04,07,10,40,11.20
2016,04,07,10,41,11.20
2016,04,07,10,42,11.20
2016,04,07,10,43,11.20
2016,04,07,10,44,11.30
2016,04,07,10,45,11.30
2016,04,07,10,46,11.20
2016,04,07,10,47,11.20
2016,04,07,10,48,11.30
2016,04,07,10,49,11.30
2016,04,07,10,50,11.30
2016,04,07,10,51,11.20
2016,04,07,10,52,11.20
2016,04,07,10,53,11.20
2016,04,07,10,54,11.20
2016,04,07,10,55,11.30
2016,04,07,10,56,11.30
2016,04,07,10,57,11.30
2016,04,07,10,58,11.40
2016,04,07,10,59,11.40
2016,04,07,11,00,11.50
2016,04,07,11,01,11.50
2016,04,07,11,02,11.60
2016,04,07,11,03,11.60
2016,04,07,11,04,11.50
2016,04,07,11,05,11.50
2016,04,07,11,06,11.60
2016,04,07,11,07,11.60
2016,04,07,11,08,11.60
2016,04,07,11,09,11.60
2016,04,07,11,10,11.60
2016,04,07,11,11,11.60
2016,04,07,11,12,11.60
2016,04,07,11,13,11.60
2016,04,07,11,14,11.60
2016,04,07,11,15,11.60
2016,04,07,11,16,11.60
2016,04,07,11,17,11.60
2016,04,07,11,18,11.60
2016,04,07,11,19,11.60
2016,04,07,11,20,11.60
2016,04,07,11,21,11.60
2016,04,07,11,22,11.60
2016,04,07,11,23,11.60
2016,04,07,11,24,11.60
2016,04,07,11,25,11.50
2016,04,07,11,26,11.60
2016,04,07,11,27,11.60
2016,04,07,11,28,11.70
2016,04,07,11,29,11.70
2016,04,07,11,30,11.80
2016,04,07,11,31,11.90
2016,04,07,11,32,11.90
2016,04,07,11,33,12.00
2016,04,07,11,34,11.90
2016,04,07,11,35,11.90
2016,04,07,11,36,11.80
2016,04,07,11,37,11.80
2016,04,07,11,38,11.70
2016,04,07,11,39,11.70
2016,04,07,11,40,11.80
2016,04,07,11,41,11.80
2016,04,07,11,42,11.90
2016,04,07,11,43,12.00
2016,04,07,11,44,12.00
2016,04,07,11,45,12.10
2016,04,07,11,46,12.10
2016,04,07,11,47,12.10
2016,04,07,11,48,12.10
2016,04,07,11,49,12.20
2016,04,07,11,50,12.30
2016,04,07,11,51,12.30
2016,04,07,11,52,12.40
2016,04,07,11,53,12.50
2016,04,07,11,54,12.60
2016,04,07,11,55,12.60
2016,04,07,11,56,12.70
2016,04,07,11,57,12.70
2016,04,07,11,58,12.70
2016,04,07,11,59,12.70
2016,04,07,12,00,12.70
2016,04,07,12,01,12.70
2016,04,07,12,02,12.70
2016,04,07,12,03,12.70
2016,04,07,12,04,12.80
2016,04,07,12,05,12.80
2016,04,07,12,06,12.80
2016,04,07,12,07,12.90
2016,04,07,12,08,12.90
2016,04,07,12,09,13.00
2016,04,07,12,10,13.10
2016,04,07,12,11,13.10
2016,04,07,12,12,13.20
2016,04,07,12,13,13.10
2016,04,07,12,14,13.10
2016,04,07,12,15,13.10
2016,04,07,12,16,13.10
2016,04,07,12,17,13.00
2016,04,07,12,18,13.00
2016,04,07,12,19,13.00
2016,04,07,12,20,13.00
2016,04,07,12,21,13.00
2016,04,07,12,22,13.10
2016,04,07,12,23,13.10
2016,04,07,12,24,13.10
2016,04,07,12,25,13.10
2016,04,07,12,26,13.20
2016,04,07,12,27,13.20
2016,04,07,12,28,13.20
2016,04,07,12,29,13.30
2016,04,07,12,30,13.30
2016,04,07,12,31,13.30
2016,04,07,12,32,13.30
2016,04,07,12,33,13.40
2016,04,07,12,34,13.40
2016,04,07,12,35,13.30
2016,04,07,12,36,13.30
2016,04,07,12,37,13.20
2016,04,07,12,38,13.20
2016,04,07,12,39,13.10
2016,04,07,12,40,13.10
2016,04,07,12,41,13.10
2016,04,07,12,42,13.20
2016,04,07,12,43,13.30
2016,04,07,12,44,13.30
2016,04,07,12,45,13.20
2016,04,07,12,46,13.10
2016,04,07,12,47,13.10
2016,04,07,12,48,13.10
2016,04,07,12,49,13.10
2016,04,07,12,50,13.20
2016,04,07,12,51,13.30
2016,04,07,12,52,13.40
2016,04,07,12,53,13.40
2016,04,07,12,54,13.50
2016,04,07,12,55,13.50
2016,04,07,12,56,13.50
2016,04,07,12,57,13.50
2016,04,07,12,58,13.40
2016,04,07,12,59,13.40
2016,04,07,13,00,13.40
2016,04,07,13,01,13.40
2016,04,07,13,02,13.40
2016,04,07,13,03,13.40
2016,04,07,13,04,13.40
2016,04,07,13,05,13.50
2016,04,07,13,06,13.50
2016,04,07,13,07,13.40
2016,04,07,13,08,13.50
2016,04,07,13,09,13.40
2016,04,07,13,10,13.50
2016,04,07,13,11,13.50
2016,04,07,13,12,13.50
2016,04,07,13,13,13.40
2016,04,07,13,14,13.40
2016,04,07,13,15,13.50
2016,04,07,13,16,13.40
2016,04,07,13,17,13.40
2016,04,07,13,18,13.40
2016,04,07,13,19,13.30
2016,04,07,13,20,13.30
2016,04,07,13,21,13.30
2016,04,07,13,22,13.30
2016,04,07,13,23,13.20
2016,04,07,13,24,13.10
2016,04,07,13,25,13.10
2016,04,07,13,26,13.10
2016,04,07,13,27,13.10
2016,04,07,13,28,13.10
2016,04,07,13,29,13.10
2016,04,07,13,30,13.10
2016,04,07,13,31,13.20
2016,04,07,13,32,13.30
2016,04,07,13,33,13.40
2016,04,07,13,34,13.50
2016,04,07,13,35,13.60
2016,04,07,13,36,13.70
2016,04,07,13,37,13.70
2016,04,07,13,38,13.70
2016,04,07,13,39,13.80
2016,04,07,13,40,13.90
2016,04,07,13,41,14.00
2016,04,07,13,42,14.00
2016,04,07,13,43,14.10
2016,04,07,13,44,14.10
2016,04,07,13,45,14.10
2016,04,07,13,46,14.10
2016,04,07,13,47,14.20
2016,04,07,13,48,14.20
2016,04,07,13,49,14.20
2016,04,07,13,50,14.30
2016,04,07,13,51,14.40
2016,04,07,13,52,14.50
2016,04,07,13,53,14.60
2016,04,07,13,54,14.70
2016,04,07,13,55,14.80
2016,04,07,13,56,15.00
2016,04,07,13,57,15.00
2016,04,07,13,58,15.00
2016,04,07,13,59,15.20
2016,04,07,14,00,15.30
2016,04,07,14,01,15.40
2016,04,07,14,02,15.40
2016,04,07,14,03,15.40
2016,04,07,14,04,15.40
2016,04,07,14,05,15.40
2016,04,07,14,06,15.40
2016,04,07,14,07,15.40
2016,04,07,14,08,15.50
2016,04,07,14,09,15.60
2016,04,07,14,10,15.60
2016,04,07,14,11,15.70
2016,04,07,14,12,15.70
2016,04,07,14,13,15.80
2016,04,07,14,14,15.90
2016,04,07,14,15,16.00
2016,04,07,14,16,16.00
2016,04,07,14,17,16.00
2016,04,07,14,18,16.00
2016,04,07,14,19,16.00
2016,04,07,14,20,15.90
2016,04,07,14,21,15.90
2016,04,07,14,22,15.90
2016,04,07,14,23,15.90
2016,04,07,14,24,16.00
2016,04,07,14,25,16.00
2016,04,07,14,26,16.00
2016,04,07,14,27,16.10
2016,04,07,14,28,16.20
2016,04,07,14,29,16.10
2016,04,07,14,30,16.10
2016,04,07,14,31,16.10
2016,04,07,14,32,16.10
2016,04,07,14,33,16.10
2016,04,07,14,34,16.10
2016,04,07,14,35,16.10
2016,04,07,14,36,16.10
2016,04,07,14,37,16.20
2016,04,07,14,38,16.20
2016,04,07,14,39,16.30
2016,04,07,14,40,16.40
2016,04,07,14,41,16.50
2016,04,07,14,42,16.60
2016,04,07,14,43,16.60
2016,04,07,14,44,16.60
2016,04,07,14,45,16.70
2016,04,07,14,46,16.80
2016,04,07,14,47,16.90
2016,04,07,14,48,17.00
2016,04,07,14,49,17.00
2016,04,07,14,50,17.10
2016,04,07,14,51,17.10
2016,04,07,14,52,17.10
2016,04,07,14,53,17.10
2016,04,07,14,54,17.10
2016,04,07,14,55,17.10
2016,04,07,14,56,17.20
2016,04,07,14,57,17.20
2016,04,07,14,58,17.30
2016,04,07,14,59,17.30
2016,04,07,15,00,17.20
2016,04,07,15,01,17.20
2016,04,07,15,02,17.20
2016,04,07,15,03,17.20
2016,04,07,15,04,17.10
2016,04,07,15,05,17.00
2016,04,07,15,06,16.80
2016,04,07,15,07,16.80
2016,04,07,15,08,16.80
2016,04,07,15,09,16.80
2016,04,07,15,10,16.80
2016,04,07,15,11,16.80
2016,04,07,15,12,16.90
2016,04,07,15,13,16.90
2016,04,07,15,14,16.90
2016,04,07,15,15,16.90
2016,04,07,15,16,17.00
2016,04,07,15,17,17.00
2016,04,07,15,18,17.10
2016,04,07,15,19,17.30
2016,04,07,15,20,17.40
2016,04,07,15,21,17.60
2016,04,07,15,22,17.70
2016,04,07,15,23,17.80
2016,04,07,15,24,17.80
2016,04,07,15,25,17.70
2016,04,07,15,26,17.70
2016,04,07,15,27,17.70
2016,04,07,15,28,17.70
2016,04,07,15,29,17.70
2016,04,07,15,30,17.70
2016,04,07,15,31,17.80
2016,04,07,15,32,17.90
2016,04,07,15,33,17.90
2016,04,07,15,34,17.90
2016,04,07,15,35,17.90
2016,04,07,15,36,17.90
2016,04,07,15,37,18.00
2016,04,07,15,38,18.00
2016,04,07,15,39,18.00
2016,04,07,15,40,18.20
2016,04,07,15,41,18.30
2016,04,07,15,42,18.40
2016,04,07,15,43,18.50
2016,04,07,15,44,18.60
2016,04,07,15,45,18.60
2016,04,07,15,46,18.60
2016,04,07,15,47,18.60
2016,04,07,15,48,18.70
2016,04,07,15,49,18.70
2016,04,07,15,50,18.80
2016,04,07,15,51,18.80
2016,04,07,15,52,18.80
2016,04,07,15,53,18.80
2016,04,07,15,54,18.70
2016,04,07,15,55,18.70
2016,04,07,15,56,18.70
2016,04,07,15,57,18.60
2016,04,07,15,58,18.60
2016,04,07,15,59,18.50
2016,04,07,16,00,18.50
2016,04,07,16,01,18.40
2016,04,07,16,02,18.30
2016,04,07,16,03,18.20
2016,04,07,16,04,18.10
2016,04,07,16,05,18.00
2016,04,07,16,06,17.90
2016,04,07,16,07,17.80
2016,04,07,16,08,17.80
2016,04,07,16,09,17.80
2016,04,07,16,10,17.80
2016,04,07,16,11,17.80
2016,04,07,16,12,17.90
2016,04,07,16,13,18.00
2016,04,07,16,14,18.10
2016,04,07,16,15,18.20
2016,04,07,16,16,18.30
2016,04,07,16,17,18.30
2016,04,07,16,18,18.30
2016,04,07,16,19,18.30
2016,04,07,16,20,18.30
2016,04,07,16,21,18.20
2016,04,07,16,22,18.20
2016,04,07,16,23,18.10
2016,04,07,16,24,18.10
2016,04,07,16,25,18.10
2016,04,07,16,26,18.10
2016,04,07,16,27,18.10
2016,04,07,16,28,18.20
2016,04,07,16,29,18.20
2016,04,07,16,30,18.10
2016,04,07,16,31,18.10
2016,04,07,16,32,18.10
2016,04,07,16,33,18.10
2016,04,07,16,34,18.10
2016,04,07,16,35,18.00
2016,04,07,16,36,17.80
2016,04,07,16,37,17.70
2016,04,07,16,38,17.70
2016,04,07,16,39,17.60
2016,04,07,16,40,17.60
2016,04,07,16,41,17.60
2016,04,07,16,42,17.60
2016,04,07,16,43,17.70
2016,04,07,16,44,17.70
2016,04,07,16,45,17.70
2016,04,07,16,46,17.70
2016,04,07,16,47,17.60
2016,04,07,16,48,17.60
2016,04,07,16,49,17.60
2016,04,07,16,50,17.60
2016,04,07,16,51,17.60
2016,04,07,16,52,17.60
2016,04,07,16,53,17.60
2016,04,07,16,54,17.70
2016,04,07,16,55,17.70
2016,04,07,16,56,17.80
2016,04,07,16,57,17.80
2016,04,07,16,58,17.90
2016,04,07,16,59,17.90
2016,04,07,17,00,18.00
2016,04,07,17,01,18.10
2016,04,07,17,02,18.20
2016,04,07,17,03,18.30
2016,04,07,17,04,18.40
2016,04,07,17,05,18.40
2016,04,07,17,06,18.50
2016,04,07,17,07,18.60
2016,04,07,17,08,18.60
2016,04,07,17,09,18.60
2016,04,07,17,10,18.70
2016,04,07,17,11,18.70
2016,04,07,17,12,18.70
2016,04,07,17,13,18.70
2016,04,07,17,14,18.60
2016,04,07,17,15,18.60
2016,04,07,17,16,18.60
2016,04,07,17,17,18.60
2016,04,07,17,18,18.70
2016,04,07,17,19,18.70
2016,04,07,17,20,18.70
2016,04,07,17,21,18.70
2016,04,07,17,22,18.60
2016,04,07,17,23,18.50
2016,04,07,17,24,18.40
2016,04,07,17,25,18.40
2016,04,07,17,26,18.40
2016,04,07,17,27,18.40
2016,04,07,17,28,18.40
2016,04,07,17,29,18.50
2016,04,07,17,30,18.50
2016,04,07,17,31,18.60
2016,04,07,17,32,18.60
2016,04,07,17,33,18.50
2016,04,07,17,34,18.50
2016,04,07,17,35,18.40
2016,04,07,17,36,18.30
2016,04,07,17,37,18.30
2016,04,07,17,38,18.30
2016,04,07,17,39,18.30
2016,04,07,17,40,18.30
2016,04,07,17,41,18.20
2016,04,07,17,42,18.20
2016,04,07,17,43,18.10